Year,Month,Day,Hour,Minute,Value (Times are PST for temperature in C)
2011,09,20,00,00,11.10
2011,09,20,00,01,11.10
2011,09,20,00,02,11.10
2011,09,20,00,03,11.10
2011,09,20,00,04,11.10
2011,09,20,00,05,11.10
2011,09,20,00,06,11.10
2011,09,20,00,07,11.10
2011,09,20,00,08,11.20
2011,09,20,00,09,11.20
2011,09,20,00,10,11.20
2011,09,20,00,11,11.20
2011,09,20,00,12,11.20
2011,09,20,00,13,11.30
2011,09,20,00,14,11.30
2011,09,20,00,15,11.30
2011,09,20,00,16,11.30
2011,09,20,00,17,11.30
2011,09,20,00,18,11.30
2011,09,20,00,19,11.30
2011,09,20,00,20,11.30
2011,09,20,00,21,11.30
2011,09,20,00,22,11.30
2011,09,20,00,23,11.40
2011,09,20,00,24,11.40
2011,09,20,00,25,11.40
2011,09,20,00,26,11.40
2011,09,20,00,27,11.40
2011,09,20,00,28,11.40
2011,09,20,00,29,11.50
2011,09,20,00,30,11.50
2011,09,20,00,31,11.50
2011,09,20,00,32,11.50
2011,09,20,00,33,11.60
2011,09,20,00,34,11.60
2011,09,20,00,35,11.60
2011,09,20,00,36,11.60
2011,09,20,00,37,11.60
2011,09,20,00,38,11.60
2011,09,20,00,39,11.60
2011,09,20,00,40,11.60
2011,09,20,00,41,11.60
2011,09,20,00,42,11.60
2011,09,20,00,43,11.60
2011,09,20,00,44,11.60
2011,09,20,00,45,11.60
2011,09,20,00,46,11.60
2011,09,20,00,47,11.60
2011,09,20,00,48,11.60
2011,09,20,00,49,11.60
2011,09,20,00,50,11.60
2011,09,20,00,51,11.60
2011,09,20,00,52,11.60
2011,09,20,00,53,11.60
2011,09,20,00,54,11.60
2011,09,20,00,55,11.60
2011,09,20,00,56,11.60
2011,09,20,00,57,11.60
2011,09,20,00,58,11.60
2011,09,20,00,59,11.60
2011,09,20,01,00,11.60
2011,09,20,01,01,11.60
2011,09,20,01,02,11.60
2011,09,20,01,03,11.60
2011,09,20,01,04,11.60
2011,09,20,01,05,11.60
2011,09,20,01,06,11.70
2011,09,20,01,07,11.70
2011,09,20,01,08,11.70
2011,09,20,01,09,11.70
2011,09,20,01,10,11.70
2011,09,20,01,11,11.80
2011,09,20,01,12,11.80
2011,09,20,01,13,11.80
2011,09,20,01,14,11.90
2011,09,20,01,15,11.90
2011,09,20,01,16,11.90
2011,09,20,01,17,11.90
2011,09,20,01,18,11.80
2011,09,20,01,19,11.80
2011,09,20,01,20,11.80
2011,09,20,01,21,11.80
2011,09,20,01,22,11.80
2011,09,20,01,23,11.80
2011,09,20,01,24,11.80
2011,09,20,01,25,11.80
2011,09,20,01,26,11.80
2011,09,20,01,27,11.80
2011,09,20,01,28,11.80
2011,09,20,01,29,11.90
2011,09,20,01,30,11.90
2011,09,20,01,31,11.90
2011,09,20,01,32,11.90
2011,09,20,01,33,11.90
2011,09,20,01,34,12.00
2011,09,20,01,35,12.00
2011,09,20,01,36,12.00
2011,09,20,01,37,12.00
2011,09,20,01,38,12.00
2011,09,20,01,39,12.10
2011,09,20,01,40,12.10
2011,09,20,01,41,12.10
2011,09,20,01,42,12.00
2011,09,20,01,43,12.00
2011,09,20,01,44,11.90
2011,09,20,01,45,11.90
2011,09,20,01,46,11.90
2011,09,20,01,47,11.90
2011,09,20,01,48,11.90
2011,09,20,01,49,11.90
2011,09,20,01,50,11.90
2011,09,20,01,51,11.90
2011,09,20,01,52,11.90
2011,09,20,01,53,11.90
2011,09,20,01,54,11.90
2011,09,20,01,55,11.90
2011,09,20,01,56,11.90
2011,09,20,01,57,11.90
2011,09,20,01,58,11.90
2011,09,20,01,59,11.90
2011,09,20,02,00,11.90
2011,09,20,02,01,11.90
2011,09,20,02,02,11.80
2011,09,20,02,03,11.80
2011,09,20,02,04,11.80
2011,09,20,02,05,11.80
2011,09,20,02,06,11.80
2011,09,20,02,07,11.80
2011,09,20,02,08,11.80
2011,09,20,02,09,11.80
2011,09,20,02,10,11.80
2011,09,20,02,11,11.70
2011,09,20,02,12,11.70
2011,09,20,02,13,11.70
2011,09,20,02,14,11.70
2011,09,20,02,15,11.70
2011,09,20,02,16,11.60
2011,09,20,02,17,11.40
2011,09,20,02,18,11.40
2011,09,20,02,19,11.40
2011,09,20,02,20,11.40
2011,09,20,02,21,11.30
2011,09,20,02,22,11.30
2011,09,20,02,23,11.30
2011,09,20,02,24,11.30
2011,09,20,02,25,11.30
2011,09,20,02,26,11.30
2011,09,20,02,27,11.20
2011,09,20,02,28,11.20
2011,09,20,02,29,11.10
2011,09,20,02,30,11.10
2011,09,20,02,31,11.00
2011,09,20,02,32,11.00
2011,09,20,02,33,10.90
2011,09,20,02,34,10.80
2011,09,20,02,35,10.80
2011,09,20,02,36,10.80
2011,09,20,02,37,10.70
2011,09,20,02,38,10.70
2011,09,20,02,39,10.70
2011,09,20,02,40,10.80
2011,09,20,02,41,10.80
2011,09,20,02,42,10.80
2011,09,20,02,43,10.80
2011,09,20,02,44,10.90
2011,09,20,02,45,10.90
2011,09,20,02,46,10.90
2011,09,20,02,47,10.90
2011,09,20,02,48,10.90
2011,09,20,02,49,11.00
2011,09,20,02,50,11.00
2011,09,20,02,51,11.00
2011,09,20,02,52,11.00
2011,09,20,02,53,11.10
2011,09,20,02,54,11.10
2011,09,20,02,55,11.10
2011,09,20,02,56,11.10
2011,09,20,02,57,11.10
2011,09,20,02,58,11.00
2011,09,20,02,59,11.00
2011,09,20,03,00,11.00
2011,09,20,03,01,10.90
2011,09,20,03,02,10.90
2011,09,20,03,03,10.90
2011,09,20,03,04,10.90
2011,09,20,03,05,10.90
2011,09,20,03,06,10.90
2011,09,20,03,07,10.80
2011,09,20,03,08,10.80
2011,09,20,03,09,10.80
2011,09,20,03,10,10.80
2011,09,20,03,11,10.80
2011,09,20,03,12,10.80
2011,09,20,03,13,10.80
2011,09,20,03,14,10.80
2011,09,20,03,15,10.80
2011,09,20,03,16,10.80
2011,09,20,03,17,10.80
2011,09,20,03,18,10.80
2011,09,20,03,19,10.80
2011,09,20,03,20,10.80
2011,09,20,03,21,10.70
2011,09,20,03,22,10.70
2011,09,20,03,23,10.70
2011,09,20,03,24,10.70
2011,09,20,03,25,10.70
2011,09,20,03,26,10.70
2011,09,20,03,27,10.70
2011,09,20,03,28,10.70
2011,09,20,03,29,10.70
2011,09,20,03,30,10.70
2011,09,20,03,31,10.70
2011,09,20,03,32,10.60
2011,09,20,03,33,10.60
2011,09,20,03,34,10.50
2011,09,20,03,35,10.50
2011,09,20,03,36,10.40
2011,09,20,03,37,10.40
2011,09,20,03,38,10.40
2011,09,20,03,39,10.40
2011,09,20,03,40,10.40
2011,09,20,03,41,10.40
2011,09,20,03,42,10.40
2011,09,20,03,43,10.40
2011,09,20,03,44,10.50
2011,09,20,03,45,10.50
2011,09,20,03,46,10.50
2011,09,20,03,47,10.50
2011,09,20,03,48,10.60
2011,09,20,03,49,10.60
2011,09,20,03,50,10.60
2011,09,20,03,51,10.70
2011,09,20,03,52,10.70
2011,09,20,03,53,10.70
2011,09,20,03,54,10.70
2011,09,20,03,55,10.70
2011,09,20,03,56,10.70
2011,09,20,03,57,10.70
2011,09,20,03,58,10.70
2011,09,20,03,59,10.70
2011,09,20,04,00,10.70
2011,09,20,04,01,10.80
2011,09,20,04,02,10.80
2011,09,20,04,03,10.80
2011,09,20,04,04,10.80
2011,09,20,04,05,10.80
2011,09,20,04,06,10.80
2011,09,20,04,07,10.80
2011,09,20,04,08,10.80
2011,09,20,04,09,10.80
2011,09,20,04,10,10.80
2011,09,20,04,11,10.70
2011,09,20,04,12,10.70
2011,09,20,04,13,10.60
2011,09,20,04,14,10.60
2011,09,20,04,15,10.60
2011,09,20,04,16,10.50
2011,09,20,04,17,10.50
2011,09,20,04,18,10.50
2011,09,20,04,19,10.50
2011,09,20,04,20,10.50
2011,09,20,04,21,10.50
2011,09,20,04,22,10.40
2011,09,20,04,23,10.30
2011,09,20,04,24,10.20
2011,09,20,04,25,10.20
2011,09,20,04,26,10.20
2011,09,20,04,27,10.20
2011,09,20,04,28,10.20
2011,09,20,04,29,10.20
2011,09,20,04,30,10.20
2011,09,20,04,31,10.20
2011,09,20,04,32,10.20
2011,09,20,04,33,10.20
2011,09,20,04,34,10.20
2011,09,20,04,35,10.20
2011,09,20,04,36,10.20
2011,09,20,04,37,10.20
2011,09,20,04,38,10.10
2011,09,20,04,39,10.10
2011,09,20,04,40,10.20
2011,09,20,04,41,10.20
2011,09,20,04,42,10.20
2011,09,20,04,43,10.20
2011,09,20,04,44,10.30
2011,09,20,04,45,10.30
2011,09,20,04,46,10.30
2011,09,20,04,47,10.30
2011,09,20,04,48,10.40
2011,09,20,04,49,10.40
2011,09,20,04,50,10.50
2011,09,20,04,51,10.50
2011,09,20,04,52,10.60
2011,09,20,04,53,10.70
2011,09,20,04,54,10.70
2011,09,20,04,55,10.70
2011,09,20,04,56,10.80
2011,09,20,04,57,10.80
2011,09,20,04,58,10.80
2011,09,20,04,59,10.80
2011,09,20,05,00,10.90
2011,09,20,05,01,10.90
2011,09,20,05,02,10.90
2011,09,20,05,03,10.90
2011,09,20,05,04,10.90
2011,09,20,05,05,10.90
2011,09,20,05,06,10.90
2011,09,20,05,07,10.80
2011,09,20,05,08,10.70
2011,09,20,05,09,10.70
2011,09,20,05,10,10.70
2011,09,20,05,11,10.70
2011,09,20,05,12,10.70
2011,09,20,05,13,10.70
2011,09,20,05,14,10.70
2011,09,20,05,15,10.70
2011,09,20,05,16,10.70
2011,09,20,05,17,10.60
2011,09,20,05,18,10.50
2011,09,20,05,19,10.40
2011,09,20,05,20,10.40
2011,09,20,05,21,10.40
2011,09,20,05,22,10.40
2011,09,20,05,23,10.40
2011,09,20,05,24,10.40
2011,09,20,05,25,10.40
2011,09,20,05,26,10.40
2011,09,20,05,27,10.40
2011,09,20,05,28,10.40
2011,09,20,05,29,10.40
2011,09,20,05,30,10.40
2011,09,20,05,31,10.40
2011,09,20,05,32,10.40
2011,09,20,05,33,10.40
2011,09,20,05,34,10.40
2011,09,20,05,35,10.40
2011,09,20,05,36,10.40
2011,09,20,05,37,10.30
2011,09,20,05,38,10.20
2011,09,20,05,39,10.10
2011,09,20,05,40,10.00
2011,09,20,05,41,9.90
2011,09,20,05,42,10.00
2011,09,20,05,43,10.00
2011,09,20,05,44,10.10
2011,09,20,05,45,10.20
2011,09,20,05,46,10.30
2011,09,20,05,47,10.40
2011,09,20,05,48,10.40
2011,09,20,05,49,10.40
2011,09,20,05,50,10.20
2011,09,20,05,51,10.10
2011,09,20,05,52,10.10
2011,09,20,05,53,10.20
2011,09,20,05,54,10.20
2011,09,20,05,55,10.30
2011,09,20,05,56,10.30
2011,09,20,05,57,10.30
2011,09,20,05,58,10.30
2011,09,20,05,59,10.30
2011,09,20,06,00,10.20
2011,09,20,06,01,10.10
2011,09,20,06,02,10.10
2011,09,20,06,03,10.00
2011,09,20,06,04,10.00
2011,09,20,06,05,10.00
2011,09,20,06,06,10.10
2011,09,20,06,07,10.20
2011,09,20,06,08,10.20
2011,09,20,06,09,10.30
2011,09,20,06,10,10.30
2011,09,20,06,11,10.40
2011,09,20,06,12,10.40
2011,09,20,06,13,10.40
2011,09,20,06,14,10.40
2011,09,20,06,15,10.40
2011,09,20,06,16,10.40
2011,09,20,06,17,10.40
2011,09,20,06,18,10.40
2011,09,20,06,19,10.40
2011,09,20,06,20,10.30
2011,09,20,06,21,10.10
2011,09,20,06,22,10.10
2011,09,20,06,23,10.00
2011,09,20,06,24,9.90
2011,09,20,06,25,9.90
2011,09,20,06,26,9.90
2011,09,20,06,27,9.90
2011,09,20,06,28,10.00
2011,09,20,06,29,10.10
2011,09,20,06,30,10.10
2011,09,20,06,31,10.10
2011,09,20,06,32,10.10
2011,09,20,06,33,10.10
2011,09,20,06,34,10.10
2011,09,20,06,35,10.10
2011,09,20,06,36,10.00
2011,09,20,06,37,9.90
2011,09,20,06,38,9.90
2011,09,20,06,39,9.90
2011,09,20,06,40,9.90
2011,09,20,06,41,9.90
2011,09,20,06,42,9.90
2011,09,20,06,43,9.90
2011,09,20,06,44,9.90
2011,09,20,06,45,9.90
2011,09,20,06,46,9.90
2011,09,20,06,47,9.90
2011,09,20,06,48,9.80
2011,09,20,06,49,9.60
2011,09,20,06,50,9.60
2011,09,20,06,51,9.60
2011,09,20,06,52,9.50
2011,09,20,06,53,9.50
2011,09,20,06,54,9.40
2011,09,20,06,55,9.40
2011,09,20,06,56,9.40
2011,09,20,06,57,9.40
2011,09,20,06,58,9.40
2011,09,20,06,59,9.30
2011,09,20,07,00,9.30
2011,09,20,07,01,9.40
2011,09,20,07,02,9.40
2011,09,20,07,03,9.50
2011,09,20,07,04,9.50
2011,09,20,07,05,9.50
2011,09,20,07,06,9.50
2011,09,20,07,07,9.50
2011,09,20,07,08,9.40
2011,09,20,07,09,9.40
2011,09,20,07,10,9.30
2011,09,20,07,11,9.30
2011,09,20,07,12,9.30
2011,09,20,07,13,9.30
2011,09,20,07,14,9.30
2011,09,20,07,15,9.30
2011,09,20,07,16,9.30
2011,09,20,07,17,9.30
2011,09,20,07,18,9.30
2011,09,20,07,19,9.20
2011,09,20,07,20,9.20
2011,09,20,07,21,9.20
2011,09,20,07,22,9.20
2011,09,20,07,23,9.20
2011,09,20,07,24,9.20
2011,09,20,07,25,9.30
2011,09,20,07,26,9.40
2011,09,20,07,27,9.60
2011,09,20,07,28,9.80
2011,09,20,07,29,10.00
2011,09,20,07,30,10.20
2011,09,20,07,31,10.50
2011,09,20,07,32,10.60
2011,09,20,07,33,10.80
2011,09,20,07,34,10.90
2011,09,20,07,35,11.00
2011,09,20,07,36,11.10
2011,09,20,07,37,11.20
2011,09,20,07,38,11.30
2011,09,20,07,39,11.40
2011,09,20,07,40,11.40
2011,09,20,07,41,11.50
2011,09,20,07,42,11.50
2011,09,20,07,43,11.40
2011,09,20,07,44,11.30
2011,09,20,07,45,11.20
2011,09,20,07,46,11.20
2011,09,20,07,47,11.20
2011,09,20,07,48,11.20
2011,09,20,07,49,11.20
2011,09,20,07,50,11.30
2011,09,20,07,51,11.30
2011,09,20,07,52,11.40
2011,09,20,07,53,11.40
2011,09,20,07,54,11.40
2011,09,20,07,55,11.40
2011,09,20,07,56,11.30
2011,09,20,07,57,11.30
2011,09,20,07,58,11.30
2011,09,20,07,59,11.30
2011,09,20,08,00,11.30
2011,09,20,08,01,11.30
2011,09,20,08,02,11.30
2011,09,20,08,03,11.40
2011,09,20,08,04,11.40
2011,09,20,08,05,11.50
2011,09,20,08,06,11.50
2011,09,20,08,07,11.60
2011,09,20,08,08,11.60
2011,09,20,08,09,11.70
2011,09,20,08,10,11.70
2011,09,20,08,11,11.70
2011,09,20,08,12,11.70
2011,09,20,08,13,11.80
2011,09,20,08,14,11.80
2011,09,20,08,15,11.80
2011,09,20,08,16,11.80
2011,09,20,08,17,11.80
2011,09,20,08,18,11.80
2011,09,20,08,19,11.80
2011,09,20,08,20,11.90
2011,09,20,08,21,11.90
2011,09,20,08,22,12.00
2011,09,20,08,23,12.10
2011,09,20,08,24,12.20
2011,09,20,08,25,12.20
2011,09,20,08,26,12.30
2011,09,20,08,27,12.40
2011,09,20,08,28,12.50
2011,09,20,08,29,12.60
2011,09,20,08,30,12.70
2011,09,20,08,31,12.70
2011,09,20,08,32,12.70
2011,09,20,08,33,12.70
2011,09,20,08,34,12.70
2011,09,20,08,35,12.70
2011,09,20,08,36,12.70
2011,09,20,08,37,12.80
2011,09,20,08,38,12.80
2011,09,20,08,39,12.80
2011,09,20,08,40,12.80
2011,09,20,08,41,12.80
2011,09,20,08,42,12.90
2011,09,20,08,43,12.80
2011,09,20,08,44,12.80
2011,09,20,08,45,12.80
2011,09,20,08,46,12.70
2011,09,20,08,47,12.70
2011,09,20,08,48,12.80
2011,09,20,08,49,12.80
2011,09,20,08,50,12.80
2011,09,20,08,51,12.90
2011,09,20,08,52,12.90
2011,09,20,08,53,13.00
2011,09,20,08,54,13.00
2011,09,20,08,55,13.10
2011,09,20,08,56,13.10
2011,09,20,08,57,13.00
2011,09,20,08,58,13.00
2011,09,20,08,59,13.00
2011,09,20,09,00,13.00
2011,09,20,09,01,12.90
2011,09,20,09,02,12.90
2011,09,20,09,03,12.90
2011,09,20,09,04,12.90
2011,09,20,09,05,12.90
2011,09,20,09,06,12.90
2011,09,20,09,07,13.00
2011,09,20,09,08,13.00
2011,09,20,09,09,13.10
2011,09,20,09,10,13.20
2011,09,20,09,11,13.20
2011,09,20,09,12,13.30
2011,09,20,09,13,13.40
2011,09,20,09,14,13.50
2011,09,20,09,15,13.60
2011,09,20,09,16,13.70
2011,09,20,09,17,13.80
2011,09,20,09,18,13.80
2011,09,20,09,19,13.90
2011,09,20,09,20,13.90
2011,09,20,09,21,14.00
2011,09,20,09,22,14.10
2011,09,20,09,23,14.10
2011,09,20,09,24,14.10
2011,09,20,09,25,14.20
2011,09,20,09,26,14.20
2011,09,20,09,27,14.30
2011,09,20,09,28,14.30
2011,09,20,09,29,14.30
2011,09,20,09,30,14.30
2011,09,20,09,31,14.30
2011,09,20,09,32,14.20
2011,09,20,09,33,14.20
2011,09,20,09,34,14.20
2011,09,20,09,35,14.20
2011,09,20,09,36,14.30
2011,09,20,09,37,14.30
2011,09,20,09,38,14.30
2011,09,20,09,39,14.40
2011,09,20,09,40,14.40
2011,09,20,09,41,14.40
2011,09,20,09,42,14.50
2011,09,20,09,43,14.50
2011,09,20,09,44,14.60
2011,09,20,09,45,14.60
2011,09,20,09,46,14.60
2011,09,20,09,47,14.50
2011,09,20,09,48,14.50
2011,09,20,09,49,14.50
2011,09,20,09,50,14.50
2011,09,20,09,51,14.50
2011,09,20,09,52,14.50
2011,09,20,09,53,14.50
2011,09,20,09,54,14.50
2011,09,20,09,55,14.50
2011,09,20,09,56,14.50
2011,09,20,09,57,14.50
2011,09,20,09,58,14.60
2011,09,20,09,59,14.60
2011,09,20,10,00,14.60
2011,09,20,10,01,14.70
2011,09,20,10,02,14.70
2011,09,20,10,03,14.80
2011,09,20,10,04,14.80
2011,09,20,10,05,14.90
2011,09,20,10,06,14.90
2011,09,20,10,07,14.90
2011,09,20,10,08,14.90
2011,09,20,10,09,14.90
2011,09,20,10,10,14.90
2011,09,20,10,11,14.90
2011,09,20,10,12,14.90
2011,09,20,10,13,15.00
2011,09,20,10,14,15.00
2011,09,20,10,15,15.10
2011,09,20,10,16,15.10
2011,09,20,10,17,15.10
2011,09,20,10,18,15.10
2011,09,20,10,19,15.10
2011,09,20,10,20,15.10
2011,09,20,10,21,15.10
2011,09,20,10,22,15.10
2011,09,20,10,23,15.10
2011,09,20,10,24,15.20
2011,09,20,10,25,15.20
2011,09,20,10,26,15.20
2011,09,20,10,27,15.20
2011,09,20,10,28,15.20
2011,09,20,10,29,15.30
2011,09,20,10,30,15.30
2011,09,20,10,31,15.30
2011,09,20,10,32,15.30
2011,09,20,10,33,15.30
2011,09,20,10,34,15.30
2011,09,20,10,35,15.30
2011,09,20,10,36,15.40
2011,09,20,10,37,15.40
2011,09,20,10,38,15.50
2011,09,20,10,39,15.60
2011,09,20,10,40,15.60
2011,09,20,10,41,15.60
2011,09,20,10,42,15.60
2011,09,20,10,43,15.60
2011,09,20,10,44,15.60
2011,09,20,10,45,15.70
2011,09,20,10,46,15.70
2011,09,20,10,47,15.70
2011,09,20,10,48,15.80
2011,09,20,10,49,16.00
2011,09,20,10,50,16.00
2011,09,20,10,51,16.10
2011,09,20,10,52,16.10
2011,09,20,10,53,16.10
2011,09,20,10,54,16.20
2011,09,20,10,55,16.10
2011,09,20,10,56,16.10
2011,09,20,10,57,16.10
2011,09,20,10,58,16.10
2011,09,20,10,59,16.10
2011,09,20,11,00,16.10
2011,09,20,11,01,16.10
2011,09,20,11,02,16.10
2011,09,20,11,03,16.10
2011,09,20,11,04,16.10
2011,09,20,11,05,16.10
2011,09,20,11,06,16.20
2011,09,20,11,07,16.20
2011,09,20,11,08,16.20
2011,09,20,11,09,16.20
2011,09,20,11,10,16.20
2011,09,20,11,11,16.20
2011,09,20,11,12,16.20
2011,09,20,11,13,16.20
2011,09,20,11,14,16.20
2011,09,20,11,15,16.20
2011,09,20,11,16,16.20
2011,09,20,11,17,16.10
2011,09,20,11,18,16.00
2011,09,20,11,19,16.00
2011,09,20,11,20,15.90
2011,09,20,11,21,15.90
2011,09,20,11,22,15.80
2011,09,20,11,23,15.80
2011,09,20,11,24,15.80
2011,09,20,11,25,15.90
2011,09,20,11,26,15.90
2011,09,20,11,27,16.00
2011,09,20,11,28,16.00
2011,09,20,11,29,16.00
2011,09,20,11,30,16.00
2011,09,20,11,31,15.90
2011,09,20,11,32,15.90
2011,09,20,11,33,15.90
2011,09,20,11,34,15.90
2011,09,20,11,35,15.80
2011,09,20,11,36,15.70
2011,09,20,11,37,15.70
2011,09,20,11,38,15.70
2011,09,20,11,39,15.70
2011,09,20,11,40,15.70
2011,09,20,11,41,15.70
2011,09,20,11,42,15.70
2011,09,20,11,43,15.70
2011,09,20,11,44,15.60
2011,09,20,11,45,15.60
2011,09,20,11,46,15.50
2011,09,20,11,47,15.50
2011,09,20,11,48,15.40
2011,09,20,11,49,15.50
2011,09,20,11,50,15.40
2011,09,20,11,51,15.40
2011,09,20,11,52,15.40
2011,09,20,11,53,15.40
2011,09,20,11,54,15.30
2011,09,20,11,55,15.30
2011,09,20,11,56,15.30
2011,09,20,11,57,15.40
2011,09,20,11,58,15.50
2011,09,20,11,59,15.60
2011,09,20,12,00,15.60
2011,09,20,12,01,15.40
2011,09,20,12,02,15.30
2011,09,20,12,03,15.30
2011,09,20,12,04,15.30
2011,09,20,12,05,15.30
2011,09,20,12,06,15.40
2011,09,20,12,07,15.40
2011,09,20,12,08,15.40
2011,09,20,12,09,15.40
2011,09,20,12,10,15.40
2011,09,20,12,11,15.40
2011,09,20,12,12,15.40
2011,09,20,12,13,15.40
2011,09,20,12,14,15.40
2011,09,20,12,15,15.50
2011,09,20,12,16,15.50
2011,09,20,12,17,15.50
2011,09,20,12,18,15.40
2011,09,20,12,19,15.40
2011,09,20,12,20,15.40
2011,09,20,12,21,15.40
2011,09,20,12,22,15.40
2011,09,20,12,23,15.50
2011,09,20,12,24,15.60
2011,09,20,12,25,15.60
2011,09,20,12,26,15.60
2011,09,20,12,27,15.60
2011,09,20,12,28,15.70
2011,09,20,12,29,15.70
2011,09,20,12,30,15.70
2011,09,20,12,31,15.80
2011,09,20,12,32,15.80
2011,09,20,12,33,15.80
2011,09,20,12,34,15.90
2011,09,20,12,35,15.90
2011,09,20,12,36,16.00
2011,09,20,12,37,16.10
2011,09,20,12,38,16.20
2011,09,20,12,39,16.20
2011,09,20,12,40,16.30
2011,09,20,12,41,16.30
2011,09,20,12,42,16.30
2011,09,20,12,43,16.30
2011,09,20,12,44,16.30
2011,09,20,12,45,16.30
2011,09,20,12,46,16.30
2011,09,20,12,47,16.20
2011,09,20,12,48,16.00
2011,09,20,12,49,15.90
2011,09,20,12,50,15.80
2011,09,20,12,51,15.70
2011,09,20,12,52,15.60
2011,09,20,12,53,15.50
2011,09,20,12,54,15.40
2011,09,20,12,55,15.30
2011,09,20,12,56,15.30
2011,09,20,12,57,15.20
2011,09,20,12,58,15.30
2011,09,20,12,59,15.30
2011,09,20,13,00,15.30
2011,09,20,13,01,15.30
2011,09,20,13,02,15.40
2011,09,20,13,03,15.40
2011,09,20,13,04,15.50
2011,09,20,13,05,15.50
2011,09,20,13,06,15.50
2011,09,20,13,07,15.50
2011,09,20,13,08,15.60
2011,09,20,13,09,15.60
2011,09,20,13,10,15.70
2011,09,20,13,11,15.70
2011,09,20,13,12,15.60
2011,09,20,13,13,15.60
2011,09,20,13,14,15.50
2011,09,20,13,15,15.50
2011,09,20,13,16,15.50
2011,09,20,13,17,15.50
2011,09,20,13,18,15.50
2011,09,20,13,19,15.40
2011,09,20,13,20,15.50
2011,09,20,13,21,15.50
2011,09,20,13,22,15.60
2011,09,20,13,23,15.60
2011,09,20,13,24,15.60
2011,09,20,13,25,15.70
2011,09,20,13,26,15.70
2011,09,20,13,27,15.80
2011,09,20,13,28,15.90
2011,09,20,13,29,15.90
2011,09,20,13,30,16.00
2011,09,20,13,31,16.00
2011,09,20,13,32,16.10
2011,09,20,13,33,16.20
2011,09,20,13,34,16.20
2011,09,20,13,35,16.30
2011,09,20,13,36,16.30
2011,09,20,13,37,16.40
2011,09,20,13,38,16.50
2011,09,20,13,39,16.50
2011,09,20,13,40,16.60
2011,09,20,13,41,16.60
2011,09,20,13,42,16.60
2011,09,20,13,43,16.60
2011,09,20,13,44,16.60
2011,09,20,13,45,16.60
2011,09,20,13,46,16.60
2011,09,20,13,47,16.60
2011,09,20,13,48,16.60
2011,09,20,13,49,16.60
2011,09,20,13,50,16.60
2011,09,20,13,51,16.70
2011,09,20,13,52,16.70
2011,09,20,13,53,16.80
2011,09,20,13,54,16.90
2011,09,20,13,55,16.90
2011,09,20,13,56,17.00
2011,09,20,13,57,17.00
2011,09,20,13,58,17.10
2011,09,20,13,59,17.00
2011,09,20,14,00,17.00
2011,09,20,14,01,16.90
2011,09,20,14,02,16.90
2011,09,20,14,03,16.90
2011,09,20,14,04,16.80
2011,09,20,14,05,16.80
2011,09,20,14,06,16.70
2011,09,20,14,07,16.70
2011,09,20,14,08,16.60
2011,09,20,14,09,16.60
2011,09,20,14,10,16.60
2011,09,20,14,11,16.60
2011,09,20,14,12,16.60
2011,09,20,14,13,16.70
2011,09,20,14,14,16.70
2011,09,20,14,15,16.70
2011,09,20,14,16,16.70
2011,09,20,14,17,16.70
2011,09,20,14,18,16.70
2011,09,20,14,19,16.70
2011,09,20,14,20,16.70
2011,09,20,14,21,16.70
2011,09,20,14,22,16.80
2011,09,20,14,23,16.80
2011,09,20,14,24,16.80
2011,09,20,14,25,16.90
2011,09,20,14,26,16.90
2011,09,20,14,27,16.90
2011,09,20,14,28,16.90
2011,09,20,14,29,17.00
2011,09,20,14,30,17.00
2011,09,20,14,31,17.00
2011,09,20,14,32,17.00
2011,09,20,14,33,17.00
2011,09,20,14,34,17.00
2011,09,20,14,35,17.10
2011,09,20,14,36,17.10
2011,09,20,14,37,17.10
2011,09,20,14,38,17.10
2011,09,20,14,39,17.10
2011,09,20,14,40,17.20
2011,09,20,14,41,17.20
2011,09,20,14,42,17.20
2011,09,20,14,43,17.20
2011,09,20,14,44,17.20
2011,09,20,14,45,17.30
2011,09,20,14,46,17.40
2011,09,20,14,47,17.40
2011,09,20,14,48,17.50
2011,09,20,14,49,17.60
2011,09,20,14,50,17.60
2011,09,20,14,51,17.70
2011,09,20,14,52,17.70
2011,09,20,14,53,17.70
2011,09,20,14,54,17.70
2011,09,20,14,55,17.70
2011,09,20,14,56,17.60
2011,09,20,14,57,17.60
2011,09,20,14,58,17.60
2011,09,20,14,59,17.60
2011,09,20,15,00,17.60
2011,09,20,15,01,17.60
2011,09,20,15,02,17.60
2011,09,20,15,03,17.60
2011,09,20,15,04,17.50
2011,09,20,15,05,17.50
2011,09,20,15,06,17.50
2011,09,20,15,07,17.50
2011,09,20,15,08,17.50
2011,09,20,15,09,17.50
2011,09,20,15,10,17.50
2011,09,20,15,11,17.50
2011,09,20,15,12,17.60
2011,09,20,15,13,17.50
2011,09,20,15,14,17.50
2011,09,20,15,15,17.50
2011,09,20,15,16,17.40
2011,09,20,15,17,17.40
2011,09,20,15,18,17.30
2011,09,20,15,19,17.30
2011,09,20,15,20,17.30
2011,09,20,15,21,17.20
2011,09,20,15,22,17.20
2011,09,20,15,23,17.20
2011,09,20,15,24,17.10
2011,09,20,15,25,17.10
2011,09,20,15,26,17.10
2011,09,20,15,27,17.10
2011,09,20,15,28,17.10
2011,09,20,15,29,17.10
2011,09,20,15,30,17.10
2011,09,20,15,31,17.20
2011,09,20,15,32,17.20
2011,09,20,15,33,17.20
2011,09,20,15,34,17.20
2011,09,20,15,35,17.20
2011,09,20,15,36,17.20
2011,09,20,15,37,17.20
2011,09,20,15,38,17.20
2011,09,20,15,39,17.20
2011,09,20,15,40,17.20
2011,09,20,15,41,17.20
2011,09,20,15,42,17.30
2011,09,20,15,43,17.30
2011,09,20,15,44,17.30
2011,09,20,15,45,17.20
2011,09,20,15,46,17.20
2011,09,20,15,47,17.20
2011,09,20,15,48,17.20
2011,09,20,15,49,17.20
2011,09,20,15,50,17.20
2011,09,20,15,51,17.20
2011,09,20,15,52,17.20
2011,09,20,15,53,17.20
2011,09,20,15,54,17.20
2011,09,20,15,55,17.20
2011,09,20,15,56,17.20
2011,09,20,15,57,17.20
2011,09,20,15,58,17.20
2011,09,20,15,59,17.20
2011,09,20,16,00,17.20
2011,09,20,16,01,17.30
2011,09,20,16,02,17.30
2011,09,20,16,03,17.30
2011,09,20,16,04,17.30
2011,09,20,16,05,17.20
2011,09,20,16,06,17.20
2011,09,20,16,07,17.30
2011,09,20,16,08,17.30
2011,09,20,16,09,17.30
2011,09,20,16,10,17.30
2011,09,20,16,11,17.30
2011,09,20,16,12,17.40
2011,09,20,16,13,17.40
2011,09,20,16,14,17.40
2011,09,20,16,15,17.40
2011,09,20,16,16,17.40
2011,09,20,16,17,17.40
2011,09,20,16,18,17.40
2011,09,20,16,19,17.40
2011,09,20,16,20,17.50
2011,09,20,16,21,17.50
2011,09,20,16,22,17.60
2011,09,20,16,23,17.60
2011,09,20,16,24,17.60
2011,09,20,16,25,17.60
2011,09,20,16,26,17.70
2011,09,20,16,27,17.70
2011,09,20,16,28,17.80
2011,09,20,16,29,17.80
2011,09,20,16,30,17.80
2011,09,20,16,31,17.90
2011,09,20,16,32,17.90
2011,09,20,16,33,17.90
2011,09,20,16,34,17.90
2011,09,20,16,35,17.90
2011,09,20,16,36,17.90
2011,09,20,16,37,17.90
2011,09,20,16,38,17.90
2011,09,20,16,39,17.90
2011,09,20,16,40,17.90
2011,09,20,16,41,17.90
2011,09,20,16,42,17.90
2011,09,20,16,43,17.90
2011,09,20,16,44,17.90
2011,09,20,16,45,17.90
2011,09,20,16,46,17.90
2011,09,20,16,47,17.90
2011,09,20,16,48,17.90
2011,09,20,16,49,17.90
2011,09,20,16,50,17.90
2011,09,20,16,51,17.90
2011,09,20,16,52,17.90
2011,09,20,16,53,17.90
2011,09,20,16,54,17.90
2011,09,20,16,55,17.90
2011,09,20,16,56,17.80
2011,09,20,16,57,17.70
2011,09,20,16,58,17.70
2011,09,20,16,59,17.60
2011,09,20,17,00,17.60
2011,09,20,17,01,17.50
2011,09,20,17,02,17.50
2011,09,20,17,03,17.40
2011,09,20,17,04,17.40
2011,09,20,17,05,17.40
2011,09,20,17,06,17.30
2011,09,20,17,07,17.30
2011,09,20,17,08,17.30
2011,09,20,17,09,17.30
2011,09,20,17,10,17.20
2011,09,20,17,11,17.20
2011,09,20,17,12,17.20
2011,09,20,17,13,17.20
2011,09,20,17,14,17.10
2011,09,20,17,15,17.10
2011,09,20,17,16,17.10
2011,09,20,17,17,17.10
2011,09,20,17,18,17.10
2011,09,20,17,19,17.10
2011,09,20,17,20,17.10
2011,09,20,17,21,17.10